Aérodrome :
LOGIN :

S'inscrire | Disclaimer

   EN    FR    IT 

 










Légende :    VFR   VFR Marginal   IFR   IFR Intensif   IFR Très Intensif
Visi : 
Plafond : 
>= 8 km
>= 3000ft
5 à 8 km
1000 à 3000 ft
1500m à 5 km
500 à 1000 ft
800 à 1500m
200 à 500 ft
< 800m
< 200 ft
Symboles :   Orages  Brouillard  Fortes neiges  Fortes précipitations  Vent > 20 kt
SIGMETs :   Divers  Orages  Givrage  Turbulence  Onde Orograph.  Cendres Volcan.







- Altitude de l'aérodrome : 2001 ft
- Code IATA : MAD


LEMD - Madrid

DERNIER METAR :
  • 212330Z 35003KT CAVOK 05/05 Q1030 NOSIG

METARs EXPIRÉS :
  • 212300Z VRB02KT CAVOK 06/05 Q1030 NOSIG
  • 212200Z VRB02KT CAVOK 07/06 Q1029 NOSIG
  • 212130Z 03003KT 360V080 CAVOK 07/06 Q1029 NOSIG
  • 212100Z VRB02KT CAVOK 08/07 Q1029 NOSIG

TAF TAF LEMD
Valide du 22 à 00h jusqu'au 23 à 06h UTC


212300Z 2200/2306 VRB03KT CAVOK TX16/2215Z TN01/2206Z
PROB40
TEMPO 2202/2210 3000 BR BKN003
PROB30
TEMPO 2203/2210 0600 FG VV002
Pas de NOTAMs connus pour ce terrain.



MET'MAP, la Météo Aéronautique d'un coup d'oeil ! - Copyright ORBIFLY Décembre 2007 - Disclaimer

ORBIFLY MET'MAP TEAM :

Programmation & Développement : Alexandra Zaïnal
Conception & Développement : Baudouin d'Aumeries
Co-Programmation & Développement : Marc-Olivier Méhu
Soutien technique & logistique : Manuel Goepfert

Contact : metmap@orbifly.com




SOURCES & CREDITS :

   NOAA